SAUDISAT 1C (SO-50)

Last updated on Tue Dec 03 2024 00:03:02 GMT+0000 (Coordinated Universal Time)

1 27607U 02058C 24337.49327659 .00003869 00000+0 51830-3 0 9996 2 27607 64.5562 63.6950 0033528 27.1211 333.1636 14.80428319181225
UTC large
Height (km)
Speed (km/s)
/
Latitude / Longitude
Inclination (degrees)
Orbital Period (minutes)
Azimuth
Elevation
Range (km)
Doppler Factor

Next 0 passes for location: London (51.5072 / 0.1276)

Sorry there are no passes over London.